2018,04,29,00,00,00,220.9,,,,,,,,,,,,,,
2018,04,29,00,01,00,211.6,,,,,,,,,,,,,,
2018,04,29,00,02,00,254.3,,,,,,,,,,,,,,
2018,04,29,00,03,00,313.4,,,,,,,,,,,,,,
2018,04,29,00,04,00,305.5,,,,,,,,,,,,,,
2018,04,29,00,05,00,269.7,,,,,,,,,,,,,,
2018,04,29,00,06,00,244.4,,,,,,,,,,,,,,
2018,04,29,00,07,00,252.0,,,,,,,,,,,,,,
2018,04,29,00,08,00,263.4,,,,,,,,,,,,,,
2018,04,29,00,09,00,325.2,,,,,,,,,,,,,,
2018,04,29,00,10,00,282.0,,,,,,,,,,,,,,
2018,04,29,00,11,00,242.7,,,,,,,,,,,,,,
2018,04,29,00,12,00,,,,,,,,,,,,,,,
2018,04,29,00,13,00,,,,,,,,,,,,,,,
2018,04,29,00,14,00,216.6,,,,,,,,,,,,,,
2018,04,29,00,15,00,225.4,,,,,,,,,,,,,,
2018,04,29,00,16,00,231.2,,,,,,,,,,,,,,
2018,04,29,00,17,00,236.9,,,,,,,,,,,,,,
2018,04,29,00,18,00,246.6,,,,,,,,,,,,,,
2018,04,29,00,19,00,237.2,,,,,,,,,,,,,,
2018,04,29,00,20,00,265.2,,,,,,,,,,,,,,
2018,04,29,00,21,00,314.0,,,,,,,,,,,,,,
2018,04,29,00,22,00,289.9,,,,,,,,,,,,,,
2018,04,29,00,23,00,,,,,,,,,,,,,,,
2018,04,29,00,24,00,,,,,,,,,,,,,,,
2018,04,29,00,25,00,246.4,,,,,,,,,,,,,,
2018,04,29,00,26,00,231.4,,,,,,,,,,,,,,
2018,04,29,00,27,00,252.1,,,,,,,,,,,,,,
2018,04,29,00,28,00,285.3,,,,,,,,,,,,,,
2018,04,29,00,29,00,265.2,,,,,,,,,,,,,,
2018,04,29,00,30,00,252.4,,,,,,,,,,,,,,
2018,04,29,00,31,00,286.0,,,,,,,,,,,,,,
2018,04,29,00,32,00,318.2,,,,,,,,,,,,,,
2018,04,29,00,33,00,294.7,,,,,,,,,,,,,,
2018,04,29,00,34,00,285.6,,,,,,,,,,,,,,
2018,04,29,00,35,00,265.6,,,,,,,,,,,,,,
2018,04,29,00,36,00,264.5,,,,,,,,,,,,,,
2018,04,29,00,37,00,277.7,,,,,,,,,,,,,,
2018,04,29,00,38,00,251.8,,,,,,,,,,,,,,
2018,04,29,00,39,00,231.4,,,,,,,,,,,,,,
2018,04,29,00,40,00,250.1,,,,,,,,,,,,,,
2018,04,29,00,41,00,249.0,,,,,,,,,,,,,,
2018,04,29,00,42,00,210.9,,,,,,,,,,,,,,
2018,04,29,00,43,00,226.8,,,,,,,,,,,,,,
2018,04,29,00,44,00,247.5,,,,,,,,,,,,,,
2018,04,29,00,45,00,250.2,,,,,,,,,,,,,,
2018,04,29,00,46,00,256.3,,,,,,,,,,,,,,
2018,04,29,00,47,00,248.1,,,,,,,,,,,,,,
2018,04,29,00,48,00,208.0,,,,,,,,,,,,,,
2018,04,29,00,49,00,219.8,,,,,,,,,,,,,,
2018,04,29,00,50,00,263.2,,,,,,,,,,,,,,
2018,04,29,00,51,00,251.4,,,,,,,,,,,,,,
2018,04,29,00,52,00,244.1,,,,,,,,,,,,,,
2018,04,29,00,53,00,227.3,,,,,,,,,,,,,,
2018,04,29,00,54,00,193.1,,,,,,,,,,,,,,
2018,04,29,00,55,00,205.5,,,,,,,,,,,,,,
2018,04,29,00,56,00,208.0,,,,,,,,,,,,,,
2018,04,29,00,57,00,205.4,,,,,,,,,,,,,,
2018,04,29,00,58,00,194.7,,,,,,,,,,,,,,
2018,04,29,00,59,00,203.2,,,,,,,,,,,,,,
2018,04,29,01,00,00,204.3,,,,,,,,,,,,,,
2018,04,29,01,01,00,165.1,,,,,,,,,,,,,,
2018,04,29,01,02,00,151.2,,,,,,,,,,,,,,
2018,04,29,01,03,00,178.9,,,,,,,,,,,,,,
2018,04,29,01,04,00,204.1,,,,,,,,,,,,,,
2018,04,29,01,05,00,210.5,,,,,,,,,,,,,,
2018,04,29,01,06,00,231.9,,,,,,,,,,,,,,
2018,04,29,01,07,00,225.2,,,,,,,,,,,,,,
2018,04,29,01,08,00,234.4,,,,,,,,,,,,,,
2018,04,29,01,09,00,227.9,,,,,,,,,,,,,,
2018,04,29,01,10,00,218.3,,,,,,,,,,,,,,
2018,04,29,01,11,00,216.0,,,,,,,,,,,,,,
2018,04,29,01,12,00,194.5,,,,,,,,,,,,,,
2018,04,29,01,13,00,170.5,,,,,,,,,,,,,,
2018,04,29,01,14,00,165.4,,,,,,,,,,,,,,
2018,04,29,01,15,00,218.1,,,,,,,,,,,,,,
2018,04,29,01,16,00,214.4,,,,,,,,,,,,,,
2018,04,29,01,17,00,210.1,,,,,,,,,,,,,,
2018,04,29,01,18,00,191.6,,,,,,,,,,,,,,
2018,04,29,01,19,00,245.3,,,,,,,,,,,,,,
2018,04,29,01,20,00,234.6,,,,,,,,,,,,,,
2018,04,29,01,21,00,234.6,,,,,,,,,,,,,,
2018,04,29,01,22,00,263.4,,,,,,,,,,,,,,
2018,04,29,01,23,00,264.5,,,,,,,,,,,,,,
2018,04,29,01,24,00,257.9,,,,,,,,,,,,,,
2018,04,29,01,25,00,221.0,,,,,,,,,,,,,,
2018,04,29,01,26,00,241.9,,,,,,,,,,,,,,
2018,04,29,01,27,00,271.7,,,,,,,,,,,,,,
2018,04,29,01,28,00,258.9,,,,,,,,,,,,,,
2018,04,29,01,29,00,249.7,,,,,,,,,,,,,,
2018,04,29,01,30,00,249.2,,,,,,,,,,,,,,
2018,04,29,01,31,00,253.9,,,,,,,,,,,,,,
2018,04,29,01,32,00,263.7,,,,,,,,,,,,,,
2018,04,29,01,33,00,257.1,,,,,,,,,,,,,,
2018,04,29,01,34,00,249.8,,,,,,,,,,,,,,
2018,04,29,01,35,00,255.0,,,,,,,,,,,,,,
2018,04,29,01,36,00,262.7,,,,,,,,,,,,,,
2018,04,29,01,37,00,271.5,,,,,,,,,,,,,,
2018,04,29,01,38,00,296.5,,,,,,,,,,,,,,
2018,04,29,01,39,00,297.0,,,,,,,,,,,,,,
2018,04,29,01,40,00,349.0,,,,,,,,,,,,,,
2018,04,29,01,41,00,355.3,,,,,,,,,,,,,,
2018,04,29,01,42,00,333.7,,,,,,,,,,,,,,
2018,04,29,01,43,00,316.6,,,,,,,,,,,,,,
2018,04,29,01,44,00,310.8,,,,,,,,,,,,,,
2018,04,29,01,45,00,333.5,,,,,,,,,,,,,,
2018,04,29,01,46,00,338.7,,,,,,,,,,,,,,
2018,04,29,01,47,00,323.1,,,,,,,,,,,,,,
2018,04,29,01,48,00,337.6,,,,,,,,,,,,,,
2018,04,29,01,49,00,340.5,,,,,,,,,,,,,,
2018,04,29,01,50,00,391.5,,,,,,,,,,,,,,
2018,04,29,01,51,00,379.0,,,,,,,,,,,,,,
2018,04,29,01,52,00,415.5,,,,,,,,,,,,,,
2018,04,29,01,53,00,373.6,,,,,,,,,,,,,,
2018,04,29,01,54,00,419.4,,,,,,,,,,,,,,
2018,04,29,01,55,00,484.7,,,,,,,,,,,,,,
2018,04,29,01,56,00,523.4,,,,,,,,,,,,,,
2018,04,29,01,57,00,486.4,,,,,,,,,,,,,,
2018,04,29,01,58,00,530.0,,,,,,,,,,,,,,
2018,04,29,01,59,00,635.2,,,,,,,,,,,,,,
2018,04,29,02,00,00,646.6,,,,,,,,,,,,,,
2018,04,29,02,01,00,674.9,,,,,,,,,,,,,,
2018,04,29,02,02,00,772.7,,,,,,,,,,,,,,
2018,04,29,02,03,00,742.7,,,,,,,,,,,,,,
2018,04,29,02,04,00,837.6,,,,,,,,,,,,,,
2018,04,29,02,05,00,863.5,,,,,,,,,,,,,,
2018,04,29,02,06,00,912.7,,,,,,,,,,,,,,
2018,04,29,02,07,00,923.4,,,,,,,,,,,,,,
2018,04,29,02,08,00,936.0,,,,,,,,,,,,,,
2018,04,29,02,09,00,942.6,,,,,,,,,,,,,,
2018,04,29,02,10,00,714.1,,,,,,,,,,,,,,
2018,04,29,02,11,00,653.7,,,,,,,,,,,,,,
2018,04,29,02,12,00,712.5,,,,,,,,,,,,,,
2018,04,29,02,13,00,745.2,,,,,,,,,,,,,,
2018,04,29,02,14,00,766.9,,,,,,,,,,,,,,
2018,04,29,02,15,00,626.3,,,,,,,,,,,,,,
2018,04,29,02,16,00,446.4,,,,,,,,,,,,,,
2018,04,29,02,17,00,387.9,,,,,,,,,,,,,,
2018,04,29,02,18,00,240.3,,,,,,,,,,,,,,
2018,04,29,02,19,00,207.1,,,,,,,,,,,,,,
2018,04,29,02,20,00,206.8,,,,,,,,,,,,,,
2018,04,29,02,21,00,223.9,,,,,,,,,,,,,,
2018,04,29,02,22,00,159.5,,,,,,,,,,,,,,
2018,04,29,02,23,00,82.6,,,,,,,,,,,,,,
2018,04,29,02,24,00,164.9,,,,,,,,,,,,,,
2018,04,29,02,25,00,141.2,,,,,,,,,,,,,,
2018,04,29,02,26,00,226.4,,,,,,,,,,,,,,
2018,04,29,02,27,00,420.7,,,,,,,,,,,,,,
2018,04,29,02,28,00,481.9,,,,,,,,,,,,,,
2018,04,29,02,29,00,501.3,,,,,,,,,,,,,,
2018,04,29,02,30,00,485.7,,,,,,,,,,,,,,
2018,04,29,02,31,00,458.4,,,,,,,,,,,,,,
2018,04,29,02,32,00,343.2,,,,,,,,,,,,,,
2018,04,29,02,33,00,277.3,,,,,,,,,,,,,,
2018,04,29,02,34,00,197.0,,,,,,,,,,,,,,
2018,04,29,02,35,00,339.1,,,,,,,,,,,,,,
2018,04,29,02,36,00,210.4,,,,,,,,,,,,,,
2018,04,29,02,37,00,290.5,,,,,,,,,,,,,,
2018,04,29,02,38,00,270.5,,,,,,,,,,,,,,
2018,04,29,02,39,00,232.0,,,,,,,,,,,,,,
2018,04,29,02,40,00,321.2,,,,,,,,,,,,,,
2018,04,29,02,41,00,524.4,,,,,,,,,,,,,,
2018,04,29,02,42,00,597.7,,,,,,,,,,,,,,
2018,04,29,02,43,00,498.7,,,,,,,,,,,,,,
2018,04,29,02,44,00,661.2,,,,,,,,,,,,,,
2018,04,29,02,45,00,955.8,,,,,,,,,,,,,,
2018,04,29,02,46,00,941.7,,,,,,,,,,,,,,
2018,04,29,02,47,00,1146.9,,,,,,,,,,,,,,
2018,04,29,02,48,00,1001.9,,,,,,,,,,,,,,
2018,04,29,02,49,00,1448.9,,,,,,,,,,,,,,
2018,04,29,02,50,00,1768.8,,,,,,,,,,,,,,
2018,04,29,02,51,00,2282.6,,,,,,,,,,,,,,
2018,04,29,02,52,00,2590.1,,,,,,,,,,,,,,
2018,04,29,02,53,00,2279.2,,,,,,,,,,,,,,
2018,04,29,02,54,00,2992.1,,,,,,,,,,,,,,
2018,04,29,02,55,00,3015.9,,,,,,,,,,,,,,
2018,04,29,02,56,00,2901.5,,,,,,,,,,,,,,
2018,04,29,02,57,00,4098.3,,,,,,,,,,,,,,
2018,04,29,02,58,00,3666.5,,,,,,,,,,,,,,
2018,04,29,02,59,00,4882.5,,,,,,,,,,,,,,
2018,04,29,03,00,00,4114.3,,,,,,,,,,,,,,
2018,04,29,03,01,00,5387.4,,,,,,,,,,,,,,
2018,04,29,03,02,00,9451.4,,,,,,,,,,,,,,
2018,04,29,03,03,00,18064.8,,,,,,,,,,,,,,
2018,04,29,03,04,00,15522.3,,,,,,,,,,,,,,
2018,04,29,03,05,00,562.6,,,,,,,,,,,,,,
2018,04,29,03,06,00,843.9,,,,,,,,,,,,,,
2018,04,29,03,07,00,-6148.6,,,,,,,,,,,,,,
2018,04,29,03,08,00,-13346.1,,,,,,,,,,,,,,
2018,04,29,03,09,00,-12908.2,,,,,,,,,,,,,,
2018,04,29,03,10,00,6654.1,,,,,,,,,,,,,,
2018,04,29,03,11,00,12843.4,,,,,,,,,,,,,,
2018,04,29,03,12,00,,,,,,,,,,,,,,,
2018,04,29,03,13,00,,,,,,,,,,,,,,,
2018,04,29,03,14,00,17152.8,,,,,,,,,,,,,,
2018,04,29,03,15,00,10389.0,,,,,,,,,,,,,,
2018,04,29,03,16,00,9249.6,,,,,,,,,,,,,,
2018,04,29,03,17,00,12080.8,,,,,,,,,,,,,,
2018,04,29,03,18,00,6108.5,,,,,,,,,,,,,,
2018,04,29,03,19,00,-8138.2,,,,,,,,,,,,,,
2018,04,29,03,20,00,-12108.1,,,,,,,,,,,,,,
2018,04,29,03,21,00,-14290.0,,,,,,,,,,,,,,
2018,04,29,03,22,00,-10027.6,,,,,,,,,,,,,,
2018,04,29,03,23,00,-13333.6,,,,,,,,,,,,,,
2018,04,29,03,24,00,,,,,,,,,,,,,,,
2018,04,29,03,25,00,,,,,,,,,,,,,,,
2018,04,29,03,26,00,-6575.5,,,,,,,,,,,,,,
2018,04,29,03,27,00,-3898.7,,,,,,,,,,,,,,
2018,04,29,03,28,00,-3174.5,,,,,,,,,,,,,,
2018,04,29,03,29,00,-2803.6,,,,,,,,,,,,,,
2018,04,29,03,30,00,-323.3,,,,,,,,,,,,,,
2018,04,29,03,31,00,2744.1,,,,,,,,,,,,,,
2018,04,29,03,32,00,4262.6,,,,,,,,,,,,,,
2018,04,29,03,33,00,5841.0,,,,,,,,,,,,,,
2018,04,29,03,34,00,5630.4,,,,,,,,,,,,,,
2018,04,29,03,35,00,5967.7,,,,,,,,,,,,,,
2018,04,29,03,36,00,6327.0,,,,,,,,,,,,,,
2018,04,29,03,37,00,6708.0,,,,,,,,,,,,,,
2018,04,29,03,38,00,6813.1,,,,,,,,,,,,,,
2018,04,29,03,39,00,7893.4,,,,,,,,,,,,,,
2018,04,29,03,40,00,7766.3,,,,,,,,,,,,,,
2018,04,29,03,41,00,6185.4,,,,,,,,,,,,,,
2018,04,29,03,42,00,5221.9,,,,,,,,,,,,,,
2018,04,29,03,43,00,4211.4,,,,,,,,,,,,,,
2018,04,29,03,44,00,2587.5,,,,,,,,,,,,,,
2018,04,29,03,45,00,2217.4,,,,,,,,,,,,,,
2018,04,29,03,46,00,1615.4,,,,,,,,,,,,,,
2018,04,29,03,47,00,1128.3,,,,,,,,,,,,,,
2018,04,29,03,48,00,978.0,,,,,,,,,,,,,,
2018,04,29,03,49,00,918.6,,,,,,,,,,,,,,
2018,04,29,03,50,00,773.9,,,,,,,,,,,,,,
2018,04,29,03,51,00,557.1,,,,,,,,,,,,,,
2018,04,29,03,52,00,124.6,,,,,,,,,,,,,,
2018,04,29,03,53,00,-354.3,,,,,,,,,,,,,,
2018,04,29,03,54,00,-114.4,,,,,,,,,,,,,,
2018,04,29,03,55,00,1008.3,,,,,,,,,,,,,,
2018,04,29,03,56,00,2246.8,,,,,,,,,,,,,,
2018,04,29,03,57,00,2995.4,,,,,,,,,,,,,,
2018,04,29,03,58,00,3079.8,,,,,,,,,,,,,,
2018,04,29,03,59,00,2902.8,,,,,,,,,,,,,,
2018,04,29,04,00,00,2558.2,,,,,,,,,,,,,,
2018,04,29,04,01,00,2165.5,,,,,,,,,,,,,,
2018,04,29,04,02,00,1714.4,,,,,,,,,,,,,,
2018,04,29,04,03,00,1471.5,,,,,,,,,,,,,,
2018,04,29,04,04,00,1328.5,,,,,,,,,,,,,,
2018,04,29,04,05,00,1001.9,,,,,,,,,,,,,,
2018,04,29,04,06,00,763.8,,,,,,,,,,,,,,
2018,04,29,04,07,00,596.9,,,,,,,,,,,,,,
2018,04,29,04,08,00,486.6,,,,,,,,,,,,,,
2018,04,29,04,09,00,392.6,,,,,,,,,,,,,,
2018,04,29,04,10,00,238.4,,,,,,,,,,,,,,
2018,04,29,04,11,00,,,,,,,,,,,,,,,
2018,04,29,04,12,00,,,,,,,,,,,,,,,
2018,04,29,04,13,00,36.2,,,,,,,,,,,,,,
2018,04,29,04,14,00,33.5,,,,,,,,,,,,,,
2018,04,29,04,15,00,30.4,,,,,,,,,,,,,,
2018,04,29,04,16,00,32.4,,,,,,,,,,,,,,
2018,04,29,04,17,00,39.3,,,,,,,,,,,,,,
2018,04,29,04,18,00,64.4,,,,,,,,,,,,,,
2018,04,29,04,19,00,86.5,,,,,,,,,,,,,,
2018,04,29,04,20,00,106.5,,,,,,,,,,,,,,
2018,04,29,04,21,00,117.7,,,,,,,,,,,,,,
2018,04,29,04,22,00,119.3,,,,,,,,,,,,,,
2018,04,29,04,23,00,122.0,,,,,,,,,,,,,,
2018,04,29,04,24,00,121.5,,,,,,,,,,,,,,
2018,04,29,04,25,00,,,,,,,,,,,,,,,
2018,04,29,04,26,00,,,,,,,,,,,,,,,
2018,04,29,04,27,00,121.9,,,,,,,,,,,,,,
2018,04,29,04,28,00,110.3,,,,,,,,,,,,,,
2018,04,29,04,29,00,107.7,,,,,,,,,,,,,,
2018,04,29,04,30,00,99.6,,,,,,,,,,,,,,
2018,04,29,04,31,00,86.8,,,,,,,,,,,,,,
2018,04,29,04,32,00,79.7,,,,,,,,,,,,,,
2018,04,29,04,33,00,69.8,,,,,,,,,,,,,,
2018,04,29,04,34,00,64.4,,,,,,,,,,,,,,
2018,04,29,04,35,00,67.5,,,,,,,,,,,,,,
2018,04,29,04,36,00,72.0,,,,,,,,,,,,,,
2018,04,29,04,37,00,56.4,,,,,,,,,,,,,,
2018,04,29,04,38,00,36.8,,,,,,,,,,,,,,
2018,04,29,04,39,00,36.6,,,,,,,,,,,,,,
2018,04,29,04,40,00,36.1,,,,,,,,,,,,,,
2018,04,29,04,41,00,36.9,,,,,,,,,,,,,,
2018,04,29,04,42,00,43.2,,,,,,,,,,,,,,
2018,04,29,04,43,00,52.5,,,,,,,,,,,,,,
2018,04,29,04,44,00,63.1,,,,,,,,,,,,,,
2018,04,29,04,45,00,61.0,,,,,,,,,,,,,,
2018,04,29,04,46,00,39.4,,,,,,,,,,,,,,
2018,04,29,04,47,00,35.5,,,,,,,,,,,,,,
2018,04,29,04,48,00,35.1,,,,,,,,,,,,,,
2018,04,29,04,49,00,24.5,,,,,,,,,,,,,,
2018,04,29,04,50,00,-3.3,,,,,,,,,,,,,,
2018,04,29,04,51,00,24.8,,,,,,,,,,,,,,
2018,04,29,04,52,00,57.0,,,,,,,,,,,,,,
2018,04,29,04,53,00,41.6,,,,,,,,,,,,,,
2018,04,29,04,54,00,9.1,,,,,,,,,,,,,,
2018,04,29,04,55,00,19.5,,,,,,,,,,,,,,
2018,04,29,04,56,00,-3.5,,,,,,,,,,,,,,
2018,04,29,04,57,00,31.9,,,,,,,,,,,,,,
2018,04,29,04,58,00,8.6,,,,,,,,,,,,,,
2018,04,29,04,59,00,-5.6,,,,,,,,,,,,,,
2018,04,29,05,00,00,-7.3,,,,,,,,,,,,,,
2018,04,29,05,01,00,33.4,,,,,,,,,,,,,,
2018,04,29,05,02,00,56.1,,,,,,,,,,,,,,
2018,04,29,05,03,00,23.2,,,,,,,,,,,,,,
2018,04,29,05,04,00,-3.1,,,,,,,,,,,,,,
2018,04,29,05,05,00,16.7,,,,,,,,,,,,,,
2018,04,29,05,06,00,-8.9,,,,,,,,,,,,,,
2018,04,29,05,07,00,-26.6,,,,,,,,,,,,,,
2018,04,29,05,08,00,-29.3,,,,,,,,,,,,,,
2018,04,29,05,09,00,-5.4,,,,,,,,,,,,,,
2018,04,29,05,10,00,-17.9,,,,,,,,,,,,,,
2018,04,29,05,11,00,-36.5,,,,,,,,,,,,,,
2018,04,29,05,12,00,-11.3,,,,,,,,,,,,,,
2018,04,29,05,13,00,-25.6,,,,,,,,,,,,,,
2018,04,29,05,14,00,-11.0,,,,,,,,,,,,,,
2018,04,29,05,15,00,-5.3,,,,,,,,,,,,,,
2018,04,29,05,16,00,9.9,,,,,,,,,,,,,,
2018,04,29,05,17,00,33.5,,,,,,,,,,,,,,
2018,04,29,05,18,00,16.4,,,,,,,,,,,,,,
2018,04,29,05,19,00,-2.6,,,,,,,,,,,,,,
2018,04,29,05,20,00,-14.8,,,,,,,,,,,,,,
2018,04,29,05,21,00,-45.9,,,,,,,,,,,,,,
2018,04,29,05,22,00,-61.2,,,,,,,,,,,,,,
2018,04,29,05,23,00,-51.3,,,,,,,,,,,,,,
2018,04,29,05,24,00,-26.7,,,,,,,,,,,,,,
2018,04,29,05,25,00,-14.3,,,,,,,,,,,,,,
2018,04,29,05,26,00,-18.4,,,,,,,,,,,,,,
2018,04,29,05,27,00,-19.6,,,,,,,,,,,,,,
2018,04,29,05,28,00,-5.7,,,,,,,,,,,,,,
2018,04,29,05,29,00,-14.4,,,,,,,,,,,,,,
2018,04,29,05,30,00,-41.1,,,,,,,,,,,,,,
2018,04,29,05,31,00,-32.0,,,,,,,,,,,,,,
2018,04,29,05,32,00,-22.0,,,,,,,,,,,,,,
2018,04,29,05,33,00,-19.1,,,,,,,,,,,,,,
2018,04,29,05,34,00,-10.1,,,,,,,,,,,,,,
2018,04,29,05,35,00,-10.8,,,,,,,,,,,,,,
2018,04,29,05,36,00,-16.6,,,,,,,,,,,,,,
2018,04,29,05,37,00,-13.2,,,,,,,,,,,,,,
2018,04,29,05,38,00,29.6,,,,,,,,,,,,,,
2018,04,29,05,39,00,43.8,,,,,,,,,,,,,,
2018,04,29,05,40,00,43.3,,,,,,,,,,,,,,
2018,04,29,05,41,00,26.2,,,,,,,,,,,,,,
2018,04,29,05,42,00,62.8,,,,,,,,,,,,,,
2018,04,29,05,43,00,73.7,,,,,,,,,,,,,,
2018,04,29,05,44,00,106.5,,,,,,,,,,,,,,
2018,04,29,05,45,00,108.2,,,,,,,,,,,,,,
2018,04,29,05,46,00,116.1,,,,,,,,,,,,,,
2018,04,29,05,47,00,133.7,,,,,,,,,,,,,,
2018,04,29,05,48,00,127.3,,,,,,,,,,,,,,
2018,04,29,05,49,00,106.5,,,,,,,,,,,,,,
2018,04,29,05,50,00,124.9,,,,,,,,,,,,,,
2018,04,29,05,51,00,159.1,,,,,,,,,,,,,,
2018,04,29,05,52,00,119.6,,,,,,,,,,,,,,
2018,04,29,05,53,00,77.0,,,,,,,,,,,,,,
2018,04,29,05,54,00,47.3,,,,,,,,,,,,,,
2018,04,29,05,55,00,0.8,,,,,,,,,,,,,,
2018,04,29,05,56,00,-5.1,,,,,,,,,,,,,,
2018,04,29,05,57,00,-13.4,,,,,,,,,,,,,,
2018,04,29,05,58,00,-8.2,,,,,,,,,,,,,,
2018,04,29,05,59,00,-7.7,,,,,,,,,,,,,,
2018,04,29,06,00,00,-6.7,,,,,,,,,,,,,,
2018,04,29,06,01,00,-4.8,,,,,,,,,,,,,,
2018,04,29,06,02,00,30.3,,,,,,,,,,,,,,
2018,04,29,06,03,00,24.6,,,,,,,,,,,,,,
2018,04,29,06,04,00,41.3,,,,,,,,,,,,,,
2018,04,29,06,05,00,39.9,,,,,,,,,,,,,,
2018,04,29,06,06,00,34.7,,,,,,,,,,,,,,
2018,04,29,06,07,00,,,,,,,,,,,,,,,
2018,04,29,06,08,00,,,,,,,,,,,,,,,
2018,04,29,06,09,00,16.5,,,,,,,,,,,,,,
2018,04,29,06,10,00,28.8,,,,,,,,,,,,,,
2018,04,29,06,11,00,33.1,,,,,,,,,,,,,,
2018,04,29,06,12,00,31.6,,,,,,,,,,,,,,
2018,04,29,06,13,00,3.8,,,,,,,,,,,,,,
2018,04,29,06,14,00,-3.0,,,,,,,,,,,,,,
2018,04,29,06,15,00,9.8,,,,,,,,,,,,,,
2018,04,29,06,16,00,-4.8,,,,,,,,,,,,,,
2018,04,29,06,17,00,12.8,,,,,,,,,,,,,,
2018,04,29,06,18,00,-5.1,,,,,,,,,,,,,,
2018,04,29,06,19,00,-12.3,,,,,,,,,,,,,,
2018,04,29,06,20,00,-18.8,,,,,,,,,,,,,,
2018,04,29,06,21,00,-25.2,,,,,,,,,,,,,,
2018,04,29,06,22,00,-19.5,,,,,,,,,,,,,,
2018,04,29,06,23,00,-20.2,,,,,,,,,,,,,,
2018,04,29,06,24,00,-9.1,,,,,,,,,,,,,,
2018,04,29,06,25,00,0.0,,,,,,,,,,,,,,
2018,04,29,06,26,00,6.8,,,,,,,,,,,,,,
2018,04,29,06,27,00,38.8,,,,,,,,,,,,,,
2018,04,29,06,28,00,16.7,,,,,,,,,,,,,,
2018,04,29,06,29,00,-9.2,,,,,,,,,,,,,,
2018,04,29,06,30,00,-12.7,,,,,,,,,,,,,,
2018,04,29,06,31,00,-9.4,,,,,,,,,,,,,,
2018,04,29,06,32,00,-36.9,,,,,,,,,,,,,,
2018,04,29,06,33,00,-20.5,,,,,,,,,,,,,,
2018,04,29,06,34,00,-5.0,,,,,,,,,,,,,,
2018,04,29,06,35,00,-28.3,,,,,,,,,,,,,,
2018,04,29,06,36,00,-11.4,,,,,,,,,,,,,,
2018,04,29,06,37,00,11.5,,,,,,,,,,,,,,
2018,04,29,06,38,00,53.9,,,,,,,,,,,,,,
2018,04,29,06,39,00,18.4,,,,,,,,,,,,,,
2018,04,29,06,40,00,23.0,,,,,,,,,,,,,,
2018,04,29,06,41,00,55.8,,,,,,,,,,,,,,
2018,04,29,06,42,00,80.6,,,,,,,,,,,,,,
2018,04,29,06,43,00,72.9,,,,,,,,,,,,,,
2018,04,29,06,44,00,57.6,,,,,,,,,,,,,,
2018,04,29,06,45,00,45.4,,,,,,,,,,,,,,
2018,04,29,06,46,00,53.5,,,,,,,,,,,,,,
2018,04,29,06,47,00,49.5,,,,,,,,,,,,,,
2018,04,29,06,48,00,74.9,,,,,,,,,,,,,,
2018,04,29,06,49,00,115.0,,,,,,,,,,,,,,
2018,04,29,06,50,00,120.7,,,,,,,,,,,,,,
2018,04,29,06,51,00,124.8,,,,,,,,,,,,,,
2018,04,29,06,52,00,152.7,,,,,,,,,,,,,,
2018,04,29,06,53,00,130.1,,,,,,,,,,,,,,
2018,04,29,06,54,00,119.0,,,,,,,,,,,,,,
2018,04,29,06,55,00,112.4,,,,,,,,,,,,,,
2018,04,29,06,56,00,104.1,,,,,,,,,,,,,,
2018,04,29,06,57,00,103.2,,,,,,,,,,,,,,
2018,04,29,06,58,00,102.2,,,,,,,,,,,,,,
2018,04,29,06,59,00,111.9,,,,,,,,,,,,,,
2018,04,29,07,00,00,127.4,,,,,,,,,,,,,,
2018,04,29,07,01,00,148.7,,,,,,,,,,,,,,
2018,04,29,07,02,00,125.1,,,,,,,,,,,,,,
2018,04,29,07,03,00,80.7,,,,,,,,,,,,,,
2018,04,29,07,04,00,109.1,,,,,,,,,,,,,,
2018,04,29,07,05,00,165.0,,,,,,,,,,,,,,
2018,04,29,07,06,00,176.2,,,,,,,,,,,,,,
2018,04,29,07,07,00,162.9,,,,,,,,,,,,,,
2018,04,29,07,08,00,156.7,,,,,,,,,,,,,,
2018,04,29,07,09,00,134.3,,,,,,,,,,,,,,
2018,04,29,07,10,00,125.5,,,,,,,,,,,,,,
2018,04,29,07,11,00,158.5,,,,,,,,,,,,,,
2018,04,29,07,12,00,131.4,,,,,,,,,,,,,,
2018,04,29,07,13,00,158.2,,,,,,,,,,,,,,
2018,04,29,07,14,00,186.4,,,,,,,,,,,,,,
2018,04,29,07,15,00,155.8,,,,,,,,,,,,,,
2018,04,29,07,16,00,74.5,,,,,,,,,,,,,,
2018,04,29,07,17,00,204.0,,,,,,,,,,,,,,
2018,04,29,07,18,00,199.9,,,,,,,,,,,,,,
2018,04,29,07,19,00,206.9,,,,,,,,,,,,,,
2018,04,29,07,20,00,215.2,,,,,,,,,,,,,,
2018,04,29,07,21,00,209.1,,,,,,,,,,,,,,
2018,04,29,07,22,00,213.4,,,,,,,,,,,,,,
2018,04,29,07,23,00,219.4,,,,,,,,,,,,,,
2018,04,29,07,24,00,212.1,,,,,,,,,,,,,,
2018,04,29,07,25,00,224.2,,,,,,,,,,,,,,
2018,04,29,07,26,00,206.2,,,,,,,,,,,,,,
2018,04,29,07,27,00,194.5,,,,,,,,,,,,,,
2018,04,29,07,28,00,175.1,,,,,,,,,,,,,,
2018,04,29,07,29,00,173.6,,,,,,,,,,,,,,
2018,04,29,07,30,00,178.3,,,,,,,,,,,,,,
2018,04,29,07,31,00,169.6,,,,,,,,,,,,,,
2018,04,29,07,32,00,162.0,,,,,,,,,,,,,,
2018,04,29,07,33,00,162.4,,,,,,,,,,,,,,
2018,04,29,07,34,00,173.8,,,,,,,,,,,,,,
2018,04,29,07,35,00,164.4,,,,,,,,,,,,,,
2018,04,29,07,36,00,160.5,,,,,,,,,,,,,,
2018,04,29,07,37,00,166.8,,,,,,,,,,,,,,
2018,04,29,07,38,00,168.0,,,,,,,,,,,,,,
2018,04,29,07,39,00,167.4,,,,,,,,,,,,,,
2018,04,29,07,40,00,181.7,,,,,,,,,,,,,,
2018,04,29,07,41,00,184.0,,,,,,,,,,,,,,
2018,04,29,07,42,00,164.9,,,,,,,,,,,,,,
2018,04,29,07,43,00,169.2,,,,,,,,,,,,,,
2018,04,29,07,44,00,177.1,,,,,,,,,,,,,,
2018,04,29,07,45,00,175.3,,,,,,,,,,,,,,
2018,04,29,07,46,00,169.0,,,,,,,,,,,,,,
2018,04,29,07,47,00,151.7,,,,,,,,,,,,,,
2018,04,29,07,48,00,148.7,,,,,,,,,,,,,,
2018,04,29,07,49,00,182.0,,,,,,,,,,,,,,
2018,04,29,07,50,00,176.3,,,,,,,,,,,,,,
2018,04,29,07,51,00,172.9,,,,,,,,,,,,,,
2018,04,29,07,52,00,154.7,,,,,,,,,,,,,,
2018,04,29,07,53,00,177.3,,,,,,,,,,,,,,
2018,04,29,07,54,00,181.7,,,,,,,,,,,,,,
2018,04,29,07,55,00,149.4,,,,,,,,,,,,,,
2018,04,29,07,56,00,169.4,,,,,,,,,,,,,,
2018,04,29,07,57,00,169.6,,,,,,,,,,,,,,
2018,04,29,07,58,00,166.6,,,,,,,,,,,,,,
2018,04,29,07,59,00,140.5,,,,,,,,,,,,,,
2018,04,29,08,00,00,100.9,,,,,,,,,,,,,,
2018,04,29,08,01,00,121.7,,,,,,,,,,,,,,
2018,04,29,08,02,00,127.2,,,,,,,,,,,,,,
2018,04,29,08,03,00,170.1,,,,,,,,,,,,,,
2018,04,29,08,04,00,154.6,,,,,,,,,,,,,,
2018,04,29,08,05,00,159.1,,,,,,,,,,,,,,
2018,04,29,08,06,00,157.7,,,,,,,,,,,,,,
2018,04,29,08,07,00,163.9,,,,,,,,,,,,,,
2018,04,29,08,08,00,164.2,,,,,,,,,,,,,,
2018,04,29,08,09,00,167.0,,,,,,,,,,,,,,
2018,04,29,08,10,00,157.9,,,,,,,,,,,,,,
2018,04,29,08,11,00,152.8,,,,,,,,,,,,,,
2018,04,29,08,12,00,161.7,,,,,,,,,,,,,,
2018,04,29,08,13,00,162.3,,,,,,,,,,,,,,
2018,04,29,08,14,00,147.7,,,,,,,,,,,,,,
2018,04,29,08,15,00,141.3,,,,,,,,,,,,,,
2018,04,29,08,16,00,125.1,,,,,,,,,,,,,,
2018,04,29,08,17,00,129.0,,,,,,,,,,,,,,
2018,04,29,08,18,00,149.0,,,,,,,,,,,,,,
2018,04,29,08,19,00,168.4,,,,,,,,,,,,,,
2018,04,29,08,20,00,167.4,,,,,,,,,,,,,,
2018,04,29,08,21,00,167.6,,,,,,,,,,,,,,
2018,04,29,08,22,00,156.3,,,,,,,,,,,,,,
2018,04,29,08,23,00,151.9,,,,,,,,,,,,,,
2018,04,29,08,24,00,153.1,,,,,,,,,,,,,,
2018,04,29,08,25,00,150.8,,,,,,,,,,,,,,
2018,04,29,08,26,00,152.6,,,,,,,,,,,,,,
2018,04,29,08,27,00,148.3,,,,,,,,,,,,,,
2018,04,29,08,28,00,146.8,,,,,,,,,,,,,,
2018,04,29,08,29,00,140.8,,,,,,,,,,,,,,
2018,04,29,08,30,00,124.5,,,,,,,,,,,,,,
2018,04,29,08,31,00,143.8,,,,,,,,,,,,,,
2018,04,29,08,32,00,162.3,,,,,,,,,,,,,,
2018,04,29,08,33,00,166.4,,,,,,,,,,,,,,
2018,04,29,08,34,00,160.8,,,,,,,,,,,,,,
2018,04,29,08,35,00,155.3,,,,,,,,,,,,,,
2018,04,29,08,36,00,163.0,,,,,,,,,,,,,,
2018,04,29,08,37,00,153.0,,,,,,,,,,,,,,
2018,04,29,08,38,00,128.5,,,,,,,,,,,,,,
2018,04,29,08,39,00,137.6,,,,,,,,,,,,,,
2018,04,29,08,40,00,146.2,,,,,,,,,,,,,,
2018,04,29,08,41,00,147.7,,,,,,,,,,,,,,
2018,04,29,08,42,00,154.0,,,,,,,,,,,,,,
2018,04,29,08,43,00,156.5,,,,,,,,,,,,,,
2018,04,29,08,44,00,144.0,,,,,,,,,,,,,,
2018,04,29,08,45,00,147.1,,,,,,,,,,,,,,
2018,04,29,08,46,00,143.5,,,,,,,,,,,,,,
2018,04,29,08,47,00,152.1,,,,,,,,,,,,,,
2018,04,29,08,48,00,153.3,,,,,,,,,,,,,,
2018,04,29,08,49,00,159.1,,,,,,,,,,,,,,
2018,04,29,08,50,00,144.1,,,,,,,,,,,,,,
2018,04,29,08,51,00,157.4,,,,,,,,,,,,,,
2018,04,29,08,52,00,163.7,,,,,,,,,,,,,,
2018,04,29,08,53,00,133.7,,,,,,,,,,,,,,
2018,04,29,08,54,00,121.9,,,,,,,,,,,,,,
2018,04,29,08,55,00,108.1,,,,,,,,,,,,,,
2018,04,29,08,56,00,138.5,,,,,,,,,,,,,,
2018,04,29,08,57,00,129.1,,,,,,,,,,,,,,
2018,04,29,08,58,00,156.4,,,,,,,,,,,,,,
2018,04,29,08,59,00,138.7,,,,,,,,,,,,,,
2018,04,29,09,00,00,142.4,,,,,,,,,,,,,,
2018,04,29,09,01,00,142.6,,,,,,,,,,,,,,
2018,04,29,09,02,00,144.8,,,,,,,,,,,,,,
2018,04,29,09,03,00,137.4,,,,,,,,,,,,,,
2018,04,29,09,04,00,135.1,,,,,,,,,,,,,,
2018,04,29,09,05,00,97.1,,,,,,,,,,,,,,
2018,04,29,09,06,00,110.2,,,,,,,,,,,,,,
2018,04,29,09,07,00,99.1,,,,,,,,,,,,,,
2018,04,29,09,08,00,110.9,,,,,,,,,,,,,,
2018,04,29,09,09,00,78.5,,,,,,,,,,,,,,
2018,04,29,09,10,00,123.2,,,,,,,,,,,,,,
2018,04,29,09,11,00,125.3,,,,,,,,,,,,,,
2018,04,29,09,12,00,118.2,,,,,,,,,,,,,,
2018,04,29,09,13,00,99.3,,,,,,,,,,,,,,
2018,04,29,09,14,00,90.5,,,,,,,,,,,,,,
2018,04,29,09,15,00,93.5,,,,,,,,,,,,,,
2018,04,29,09,16,00,97.6,,,,,,,,,,,,,,
2018,04,29,09,17,00,86.2,,,,,,,,,,,,,,
2018,04,29,09,18,00,86.8,,,,,,,,,,,,,,
2018,04,29,09,19,00,88.0,,,,,,,,,,,,,,
2018,04,29,09,20,00,79.7,,,,,,,,,,,,,,
2018,04,29,09,21,00,71.2,,,,,,,,,,,,,,
2018,04,29,09,22,00,78.9,,,,,,,,,,,,,,
2018,04,29,09,23,00,87.1,,,,,,,,,,,,,,
2018,04,29,09,24,00,43.4,,,,,,,,,,,,,,
2018,04,29,09,25,00,86.6,,,,,,,,,,,,,,
2018,04,29,09,26,00,45.5,,,,,,,,,,,,,,
2018,04,29,09,27,00,85.2,,,,,,,,,,,,,,
2018,04,29,09,28,00,93.5,,,,,,,,,,,,,,
2018,04,29,09,29,00,88.8,,,,,,,,,,,,,,
2018,04,29,09,30,00,77.3,,,,,,,,,,,,,,
2018,04,29,09,31,00,78.9,,,,,,,,,,,,,,
2018,04,29,09,32,00,47.9,,,,,,,,,,,,,,
2018,04,29,09,33,00,76.6,,,,,,,,,,,,,,
2018,04,29,09,34,00,35.7,,,,,,,,,,,,,,
2018,04,29,09,35,00,81.6,,,,,,,,,,,,,,
2018,04,29,09,36,00,72.2,,,,,,,,,,,,,,
2018,04,29,09,37,00,92.8,,,,,,,,,,,,,,
2018,04,29,09,38,00,82.5,,,,,,,,,,,,,,
2018,04,29,09,39,00,81.3,,,,,,,,,,,,,,
2018,04,29,09,40,00,63.2,,,,,,,,,,,,,,
2018,04,29,09,41,00,48.2,,,,,,,,,,,,,,
2018,04,29,09,42,00,121.1,,,,,,,,,,,,,,
2018,04,29,09,43,00,84.6,,,,,,,,,,,,,,
2018,04,29,09,44,00,111.8,,,,,,,,,,,,,,
2018,04,29,09,45,00,75.9,,,,,,,,,,,,,,
2018,04,29,09,46,00,87.4,,,,,,,,,,,,,,
2018,04,29,09,47,00,107.7,,,,,,,,,,,,,,